This is the latest recevied weather packets stored in our database for station/object BARLOW-WX. If no packets are shown the sender has not sent any weather packets the latest 10 day(s).
| Time | Temp. | Humidity | Pressure | Rain* | Wind** | Luminosity | Snow |
|---|---|---|---|---|---|---|---|
| 1777168898 | 10° C | 83% | 988.3 hPa | 0 mm | - | - | - |
| 1777167977 | 10.56° C | 80% | 987.8 hPa | 0 mm | - | - | - |
| 1777167092 | 10.56° C | 80% | 987.8 hPa | 0 mm | - | - | - |
| 1777166176 | 11.11° C | 80% | 987.9 hPa | 0 mm | - | - | - |
| 1777165300 | 11.11° C | 80% | 987.9 hPa | 0 mm | - | - | - |
| 1777164376 | 11.67° C | 75% | 987.9 hPa | 0 mm | - | - | - |
| 1777163492 | 12.22° C | 76% | 987.4 hPa | 0 mm | - | - | - |
| 1777162576 | 13.33° C | 76% | 987.5 hPa | 0 mm | - | - | - |
| 1777161710 | 13.89° C | 76% | 987.5 hPa | 0 mm | - | - | - |
| 1777160778 | 13.89° C | 72% | 986.1 hPa | 0 mm | - | - | - |
| 1777159889 | 14.44° C | 74% | 986.9 hPa | 0 mm | - | - | - |
| 1777158979 | 13.89° C | 74% | 986.8 hPa | 0 mm | - | - | - |
| 1777158095 | 14.44° C | 74% | 986.8 hPa | 0 mm | - | - | - |
| 1777157179 | 14.44° C | 70% | 986.9 hPa | 0 mm | - | - | - |
| 1777156289 | 15° C | 76% | 986.9 hPa | 0 mm | - | - | - |
| 1777155379 | 13.89° C | 76% | 986.8 hPa | 0 mm | - | - | - |
| 1777154500 | 14.44° C | 76% | 986.8 hPa | 0 mm | - | - | - |
| 1777153579 | 14.44° C | 67% | 987 hPa | 0 mm | - | - | - |
| 1777152694 | 15° C | 71% | 986.3 hPa | 0 mm | - | - | - |
| 1777151780 | 15° C | 71% | 986.3 hPa | 0 mm | - | - | - |
| 1777150899 | 15.56° C | 71% | 986.3 hPa | 0 mm | - | - | - |
| 1777149979 | 16.11° C | 67% | 986.5 hPa | 0 mm | - | - | - |
| 1777149089 | 16.11° C | 70% | 986 hPa | 0 mm | - | - | - |
| 1777148179 | 15.56° C | 70% | 985.9 hPa | 0 mm | - | - | - |
| 1777147300 | 15.56° C | 70% | 985.9 hPa | 0 mm | - | - | - |
* Rain latest hour (hover to see other rain measurements)
** Current wind speed in m/s (hover to see current wind gust speed)